| time (UTC) | temp F | wind direction | speed MPH | gust MPH | rain 1hr in | rain 24hr in | rain mn in | humidity % | barometer mb |
| 20260502162903 | 57 | 44 | 3.0 | 6.0 | 0.01 | 0.65 | 0.65 | 100 | 1013.3 |
| 20260502162404 | 57 | 14 | 3.0 | 8.0 | 0.01 | 0.65 | 0.65 | 100 | 1013.3 |
| 20260502161904 | 57 | 36 | 3.0 | 6.0 | 0.01 | 0.65 | 0.65 | 100 | 1013.2 |
| 20260502161404 | 57 | 206 | 1.0 | 3.0 | 0.01 | 0.65 | 0.65 | 100 | 1013.2 |
| 20260502160904 | 57 | 300 | 0.0 | 0.0 | 0.01 | 0.65 | 0.65 | 100 | 1013.1 |
| 20260502160405 | 56 | 300 | 0.0 | 3.0 | 0.01 | 0.65 | 0.65 | 100 | 1013.2 |
| 20260502151904 | 56 | 178 | 0.0 | 3.0 | 0.02 | 0.65 | 0.65 | 100 | 1013.3 |
| 20260502151404 | 56 | 185 | 3.0 | 7.0 | 0.03 | 0.65 | 0.65 | 100 | 1013.4 |
| 20260502150904 | 56 | 185 | 3.0 | 8.0 | 0.08 | 0.65 | 0.65 | 100 | 1013.4 |
| 20260502150404 | 57 | 197 | 3.0 | 9.0 | 0.18 | 0.65 | 0.65 | 100 | 1013.6 |
| 20260502130403 | 61 | 28 | 8.0 | 14.0 | 0.00 | 0.00 | 0.00 | 92 | 1013.1 |
| 20260502123403 | 61 | 18 | 13.0 | 22.0 | 0.00 | 0.00 | 0.00 | 90 | 1013.0 |
| 20260502122403 | 62 | 14 | 10.0 | 16.0 | 0.00 | 0.00 | 0.00 | 90 | 1013.1 |
| 20260502121903 | 62 | 33 | 12.0 | 20.0 | 0.00 | 0.00 | 0.00 | 90 | 1013.0 |
| 20260502121403 | 62 | 13 | 10.0 | 16.0 | 0.00 | 0.00 | 0.00 | 90 | 1013.2 |
| 20260502120903 | 62 | 15 | 12.0 | 18.0 | 0.00 | 0.00 | 0.00 | 90 | 1013.1 |
| 20260502120403 | 63 | 9 | 9.0 | 15.0 | 0.00 | 0.00 | 0.00 | 91 | 1012.9 |
| 20260502115903 | 62 | 13 | 10.0 | 17.0 | 0.00 | 0.00 | 0.00 | 91 | 1012.9 |
| 20260502115403 | 62 | 7 | 11.0 | 17.0 | 0.00 | 0.00 | 0.00 | 91 | 1013.2 |
| 20260502114903 | 62 | 22 | 12.0 | 16.0 | 0.00 | 0.00 | 0.00 | 90 | 1013.1 |
| 20260502113903 | 63 | 19 | 9.0 | 15.0 | 0.00 | 0.00 | 0.00 | 88 | 1013.5 |
| 20260502113403 | 63 | 39 | 9.0 | 16.0 | 0.00 | 0.00 | 0.00 | 86 | 1013.8 |
| 20260502112903 | 63 | 39 | 7.0 | 12.0 | 0.00 | 0.00 | 0.00 | 85 | 1014.0 |
| 20260502112403 | 63 | 11 | 5.0 | 12.0 | 0.00 | 0.00 | 0.00 | 85 | 1013.9 |
| 20260502111902 | 63 | 33 | 10.0 | 14.0 | 0.00 | 0.00 | 0.00 | 84 | 1013.9 |
| 20260502111403 | 63 | 30 | 7.0 | 12.0 | 0.00 | 0.00 | 0.00 | 84 | 1013.9 |
| 20260502110903 | 63 | 37 | 9.0 | 15.0 | 0.00 | 0.00 | 0.00 | 84 | 1014.0 |
| 20260502110403 | 63 | 26 | 4.0 | 13.0 | 0.00 | 0.00 | 0.00 | 85 | 1014.1 |
| 20260502105903 | 63 | 36 | 9.0 | 14.0 | 0.00 | 0.00 | 0.00 | 85 | 1014.1 |
| 20260502105403 | 63 | 24 | 7.0 | 15.0 | 0.00 | 0.00 | 0.00 | 86 | 1014.1 |
| 20260502104903 | 63 | 31 | 3.0 | 10.0 | 0.00 | 0.00 | 0.00 | 86 | 1014.1 |
| 20260502104403 | 63 | 9 | 9.0 | 14.0 | 0.00 | 0.00 | 0.00 | 85 | 1013.9 |
| 20260502103903 | 64 | 318 | 5.0 | 9.0 | 0.00 | 0.00 | 0.00 | 84 | 1013.9 |
| 20260502102903 | 64 | 317 | 0.0 | 2.0 | 0.00 | 0.00 | 0.00 | 85 | 1014.1 |
| 20260502102403 | 64 | 61 | 0.0 | 3.0 | 0.00 | 0.00 | 0.00 | 86 | 1014.1 |
| 20260502101903 | 64 | 65 | 2.0 | 6.0 | 0.00 | 0.00 | 0.00 | 87 | 1014.1 |
| 20260502101403 | 64 | 52 | 0.0 | 3.0 | 0.00 | 0.00 | 0.00 | 87 | 1014.2 |
| 20260502100903 | 64 | 49 | 2.0 | 6.0 | 0.00 | 0.00 | 0.00 | 87 | 1014.3 |
| 20260502100402 | 64 | 18 | 3.0 | 9.0 | 0.00 | 0.00 | 0.00 | 88 | 1014.3 |
| 20260502091403 | 61 | 311 | 0.0 | 0.0 | 0.00 | 0.00 | 0.00 | 93 | 1014.9 |
| 20260502090903 | 61 | 312 | 0.0 | 1.0 | 0.00 | 0.00 | 0.00 | 94 | 1014.8 |
| 20260502090403 | 60 | 298 | 1.0 | 2.0 | 0.00 | 0.00 | 0.00 | 94 | 1014.9 |
| 20260502071403 | 58 | 195 | 0.0 | 0.0 | 0.00 | 0.00 | 0.00 | 98 | 1014.7 |
| 20260502070903 | 58 | 195 | 0.0 | 0.0 | 0.00 | 0.00 | 0.00 | 98 | 1014.7 |
| 20260502070403 | 57 | 195 | 0.0 | 0.0 | 0.00 | 0.00 | 0.00 | 98 | 1014.7 |
| 20260502065903 | 57 | 195 | 0.0 | 0.0 | 0.00 | 0.00 | 0.00 | 98 | 1014.8 |
| 20260502065403 | 57 | 200 | 0.0 | 0.0 | 0.00 | 0.00 | 0.00 | 98 | 1014.8 |
| 20260502064903 | 57 | 200 | 0.0 | 0.0 | 0.00 | 0.00 | 0.00 | 98 | 1014.8 |
| 20260502064403 | 57 | 200 | 0.0 | 0.0 | 0.00 | 0.00 | 0.00 | 98 | 1014.8 |
| 20260502063903 | 57 | 200 | 0.0 | 1.0 | 0.00 | 0.00 | 0.00 | 98 | 1014.8 |
| 20260502063403 | 57 | 201 | 0.0 | 2.0 | 0.00 | 0.00 | 0.00 | 98 | 1014.8 |
| 20260502062903 | 57 | 201 | 1.0 | 3.0 | 0.00 | 0.00 | 0.00 | 98 | 1014.8 |
| 20260502062403 | 57 | 201 | 0.0 | 2.0 | 0.00 | 0.00 | 0.00 | 98 | 1014.8 |
| 20260502061903 | 57 | 202 | 2.0 | 3.0 | 0.00 | 0.00 | 0.00 | 98 | 1014.9 |
| 20260502061404 | 57 | 202 | 2.0 | 3.0 | 0.00 | 0.00 | 0.00 | 98 | 1015.0 |
| 20260502060903 | 58 | 202 | 0.0 | 2.0 | 0.00 | 0.00 | 0.00 | 98 | 1015.0 |
| 20260502060403 | 57 | 219 | 0.0 | 1.0 | 0.00 | 0.00 | 0.00 | 98 | 1014.9 |
| 20260502055903 | 57 | 261 | 0.0 | 0.0 | 0.00 | 0.00 | 0.00 | 98 | 1015.0 |
| 20260502054403 | 57 | 261 | 0.0 | 0.0 | 0.00 | 0.00 | 0.00 | 98 | 1014.8 |
| 20260502052403 | 57 | 261 | 0.0 | 0.0 | 0.00 | 0.00 | 0.00 | 98 | 1014.5 |
| 20260502051903 | 57 | 261 | 0.0 | 0.0 | 0.00 | 0.00 | 0.00 | 98 | 1014.6 |
| 20260502051403 | 57 | 261 | 0.0 | 1.0 | 0.00 | 0.00 | 0.00 | 98 | 1014.6 |
| 20260502050903 | 57 | 261 | 1.0 | 3.0 | 0.00 | 0.00 | 0.00 | 98 | 1014.8 |
| 20260502050403 | 57 | 261 | 1.0 | 3.0 | 0.00 | 0.00 | 0.00 | 97 | 1014.7 |
| 20260502045903 | 57 | 261 | 2.0 | 3.0 | 0.00 | 0.00 | 0.00 | 97 | 1014.7 |
| 20260502045403 | 57 | 260 | 1.0 | 3.0 | 0.00 | 0.00 | 0.00 | 97 | 1014.7 |
| 20260502044403 | 58 | 260 | 2.0 | 3.0 | 0.00 | 0.00 | 0.00 | 97 | 1014.7 |
| 20260502043903 | 58 | 260 | 0.0 | 0.0 | 0.00 | 0.00 | 0.00 | 97 | 1014.8 |
| 20260502043403 | 58 | 260 | 1.0 | 3.0 | 0.00 | 0.00 | 0.00 | 98 | 1014.8 |
| 20260502042403 | 58 | 260 | 0.0 | 0.0 | 0.00 | 0.00 | 0.00 | 98 | 1014.8 |
| 20260502041903 | 58 | 260 | 1.0 | 3.0 | 0.00 | 0.00 | 0.00 | 98 | 1014.8 |
| 20260502041403 | 58 | 260 | 0.0 | 0.0 | 0.00 | 0.00 | 0.00 | 98 | 1014.8 |
| 20260502040903 | 58 | 260 | 0.0 | 1.0 | 0.00 | 0.00 | 0.00 | 98 | 1014.8 |
| 20260502035903 | 58 | 259 | 0.0 | 0.0 | 0.00 | 0.00 | 0.00 | 98 | 1014.8 |
| 20260502035403 | 58 | 259 | 0.0 | 0.0 | 0.00 | 0.00 | 0.00 | 98 | 1014.8 |
| 20260502033403 | 57 | 259 | 0.0 | 2.0 | 0.00 | 0.00 | 0.00 | 99 | 1015.0 |
| 20260502032903 | 57 | 259 | 0.0 | 1.0 | 0.00 | 0.00 | 0.00 | 98 | 1015.0 |
| 20260502032403 | 57 | 259 | 1.0 | 3.0 | 0.00 | 0.00 | 0.00 | 98 | 1015.0 |
| 20260502031903 | 57 | 259 | 2.0 | 3.0 | 0.00 | 0.00 | 0.00 | 99 | 1015.0 |
| 20260502031404 | 57 | 259 | 2.0 | 3.0 | 0.00 | 0.00 | 0.00 | 99 | 1015.1 |
| 20260502030903 | 57 | 263 | 1.0 | 6.0 | 0.00 | 0.00 | 0.00 | 99 | 1015.1 |
| 20260502025903 | 58 | 286 | 2.0 | 3.0 | 0.00 | 0.00 | 0.00 | 98 | 1015.1 |
| 20260502025403 | 58 | 277 | 1.0 | 3.0 | 0.00 | 0.00 | 0.00 | 98 | 1015.1 |
| 20260502024903 | 58 | 190 | 1.0 | 3.0 | 0.00 | 0.00 | 0.00 | 98 | 1015.2 |
| 20260502024403 | 58 | 184 | 0.0 | 0.0 | 0.00 | 0.00 | 0.00 | 98 | 1015.2 |
| 20260502022403 | 58 | 275 | 0.0 | 0.0 | 0.00 | 0.00 | 0.00 | 99 | 1015.2 |
| 20260502021906 | 58 | 275 | 0.0 | 0.0 | 0.00 | 0.00 | 0.00 | 99 | 1015.2 |
| 20260502021403 | 58 | 275 | 0.0 | 0.0 | 0.00 | 0.00 | 0.00 | 99 | 1015.2 |
| 20260502020918 | 58 | 275 | 0.0 | 0.0 | 0.00 | 0.00 | 0.00 | 99 | 1015.2 |
| 20260502020403 | 58 | 275 | 0.0 | 0.0 | 0.00 | 0.00 | 0.00 | 99 | 1015.2 |
| 20260502015903 | 58 | 275 | 0.0 | 0.0 | 0.00 | 0.00 | 0.00 | 99 | 1015.2 |
| 20260502015403 | 58 | 275 | 0.0 | 0.0 | 0.00 | 0.00 | 0.00 | 98 | 1015.3 |
| 20260502014903 | 58 | 275 | 0.0 | 0.0 | 0.00 | 0.00 | 0.00 | 98 | 1015.2 |
| 20260502014403 | 58 | 275 | 0.0 | 0.0 | 0.00 | 0.00 | 0.00 | 98 | 1015.4 |
| 20260502013903 | 58 | 275 | 0.0 | 0.0 | 0.00 | 0.00 | 0.00 | 98 | 1015.5 |
| 20260502013403 | 58 | 275 | 0.0 | 0.0 | 0.00 | 0.00 | 0.00 | 98 | 1015.5 |
| 20260502012903 | 58 | 275 | 0.0 | 0.0 | 0.00 | 0.00 | 0.00 | 98 | 1015.5 |
| 20260502012403 | 58 | 275 | 0.0 | 0.0 | 0.00 | 0.00 | 0.00 | 98 | 1015.5 |
| 20260502011903 | 58 | 275 | 0.0 | 0.0 | 0.00 | 0.00 | 0.00 | 98 | 1015.4 |
| 20260502011403 | 58 | 275 | 0.0 | 0.0 | 0.00 | 0.00 | 0.00 | 98 | 1015.4 |
| 20260502010903 | 58 | 275 | 0.0 | 0.0 | 0.00 | 0.00 | 0.00 | 98 | 1015.4 |
| 20260502005903 | 58 | 275 | 0.0 | 1.0 | 0.00 | 0.00 | 0.00 | 98 | 1015.4 |
| 20260502005403 | 58 | 275 | 0.0 | 0.0 | 0.00 | 0.00 | 0.00 | 98 | 1015.5 |
| 20260502004903 | 58 | 275 | 0.0 | 0.0 | 0.00 | 0.00 | 0.00 | 98 | 1015.4 |
| 20260502004403 | 58 | 275 | 0.0 | 0.0 | 0.00 | 0.00 | 0.00 | 98 | 1015.5 |
| 20260502003903 | 58 | 275 | 0.0 | 0.0 | 0.00 | 0.00 | 0.00 | 98 | 1015.6 |
| 20260502003403 | 58 | 275 | 0.0 | 0.0 | 0.00 | 0.00 | 0.00 | 98 | 1015.7 |
| 20260502002403 | 58 | 275 | 0.0 | 0.0 | 0.00 | 0.00 | 0.00 | 98 | 1015.8 |
| 20260502001903 | 58 | 275 | 0.0 | 0.0 | 0.00 | 0.00 | 0.00 | 98 | 1015.8 |
| 20260502001403 | 58 | 275 | 0.0 | 3.0 | 0.00 | 0.00 | 0.00 | 98 | 1015.9 |
| 20260502000903 | 58 | 281 | 2.0 | 3.0 | 0.00 | 0.00 | 0.00 | 98 | 1016.0 |
| 20260502000403 | 58 | 65 | 0.0 | 0.0 | 0.00 | 0.00 | 0.00 | 98 | 1016.0 |
| 20260501235903 | 58 | 65 | 0.0 | 0.0 | 0.00 | 0.00 | 0.00 | 98 | 1015.9 |
| 20260501235403 | 58 | 66 | 0.0 | 0.0 | 0.00 | 0.00 | 0.00 | 98 | 1016.0 |
| 20260501234903 | 58 | 66 | 0.0 | 0.0 | 0.00 | 0.00 | 0.00 | 98 | 1016.0 |
| 20260501234403 | 58 | 65 | 0.0 | 1.0 | 0.00 | 0.00 | 0.00 | 98 | 1016.1 |
| 20260501233903 | 58 | 65 | 0.0 | 2.0 | 0.00 | 0.00 | 0.00 | 98 | 1016.1 |
| 20260501233403 | 58 | 65 | 0.0 | 3.0 | 0.00 | 0.00 | 0.00 | 98 | 1016.1 |
| 20260501232403 | 59 | 81 | 1.0 | 3.0 | 0.00 | 0.00 | 0.00 | 98 | 1016.1 |
| 20260501231903 | 59 | 81 | 0.0 | 1.0 | 0.00 | 0.00 | 0.00 | 97 | 1016.1 |
| 20260501231403 | 59 | 77 | 1.0 | 3.0 | 0.00 | 0.00 | 0.00 | 97 | 1016.2 |
| 20260501230403 | 59 | 9 | 0.0 | 0.0 | 0.00 | 0.00 | 0.00 | 98 | 1016.2 |
| 20260501225903 | 59 | 358 | 0.0 | 0.0 | 0.00 | 0.00 | 0.00 | 98 | 1016.3 |
| 20260501225403 | 59 | 355 | 0.0 | 0.0 | 0.00 | 0.00 | 0.00 | 98 | 1016.4 |
| 20260501224403 | 59 | 351 | 0.0 | 0.0 | 0.00 | 0.00 | 0.00 | 97 | 1016.6 |
| 20260501223903 | 59 | 350 | 0.0 | 0.0 | 0.00 | 0.00 | 0.00 | 97 | 1016.7 |
| 20260501223403 | 59 | 350 | 0.0 | 0.0 | 0.00 | 0.00 | 0.00 | 97 | 1016.7 |
| 20260501222903 | 59 | 350 | 1.0 | 3.0 | 0.00 | 0.00 | 0.00 | 97 | 1016.8 |
| 20260501222403 | 59 | 70 | 0.0 | 0.0 | 0.00 | 0.00 | 0.00 | 97 | 1016.9 |
| 20260501221903 | 59 | 70 | 0.0 | 0.0 | 0.00 | 0.00 | 0.00 | 97 | 1016.9 |
| 20260501221403 | 59 | 70 | 0.0 | 0.0 | 0.00 | 0.00 | 0.00 | 97 | 1016.9 |
| 20260501220903 | 59 | 70 | 0.0 | 1.0 | 0.00 | 0.00 | 0.00 | 97 | 1016.9 |
| 20260501220403 | 59 | 69 | 0.0 | 0.0 | 0.00 | 0.00 | 0.00 | 97 | 1016.9 |
| 20260501215903 | 59 | 68 | 0.0 | 0.0 | 0.00 | 0.00 | 0.00 | 97 | 1017.0 |
| 20260501215403 | 59 | 68 | 0.0 | 0.0 | 0.00 | 0.00 | 0.00 | 97 | 1017.0 |
| 20260501214903 | 59 | 69 | 0.0 | 0.0 | 0.00 | 0.00 | 0.00 | 97 | 1017.0 |
| 20260501214403 | 59 | 69 | 0.0 | 0.0 | 0.00 | 0.00 | 0.00 | 97 | 1017.0 |
| 20260501213903 | 59 | 68 | 0.0 | 0.0 | 0.00 | 0.00 | 0.00 | 97 | 1017.1 |
| 20260501213403 | 59 | 68 | 0.0 | 0.0 | 0.00 | 0.00 | 0.00 | 97 | 1017.2 |
| 20260501211903 | 60 | 67 | 0.0 | 0.0 | 0.00 | 0.00 | 0.00 | 97 | 1017.2 |
| 20260501211403 | 60 | 67 | 0.0 | 0.0 | 0.00 | 0.00 | 0.00 | 97 | 1017.1 |
| 20260501210903 | 60 | 67 | 0.0 | 0.0 | 0.00 | 0.00 | 0.00 | 97 | 1017.1 |
| 20260501210403 | 60 | 67 | 0.0 | 0.0 | 0.00 | 0.00 | 0.00 | 97 | 1017.1 |
| 20260501205903 | 60 | 67 | 0.0 | 0.0 | 0.00 | 0.00 | 0.00 | 97 | 1017.1 |
| 20260501204903 | 59 | 67 | 0.0 | 0.0 | 0.00 | 0.00 | 0.00 | 97 | 1017.0 |
| 20260501204403 | 59 | 67 | 0.0 | 0.0 | 0.00 | 0.00 | 0.00 | 97 | 1017.0 |
| 20260501203903 | 59 | 67 | 0.0 | 0.0 | 0.00 | 0.00 | 0.00 | 97 | 1017.0 |
| 20260501203403 | 59 | 67 | 0.0 | 0.0 | 0.00 | 0.00 | 0.00 | 97 | 1016.9 |
| 20260501202903 | 59 | 67 | 0.0 | 0.0 | 0.00 | 0.00 | 0.00 | 97 | 1016.9 |
| 20260501202403 | 59 | 67 | 0.0 | 0.0 | 0.00 | 0.00 | 0.00 | 97 | 1016.9 |
| 20260501201903 | 59 | 67 | 0.0 | 0.0 | 0.00 | 0.00 | 0.00 | 97 | 1017.0 |
| 20260501200903 | 59 | 67 | 0.0 | 3.0 | 0.00 | 0.00 | 0.00 | 96 | 1016.9 |
| 20260501200403 | 59 | 54 | 1.0 | 5.0 | 0.00 | 0.00 | 0.00 | 96 | 1016.9 |
| 20260501195903 | 59 | 55 | 2.0 | 5.0 | 0.00 | 0.00 | 0.00 | 96 | 1016.8 |
| 20260501195403 | 59 | 55 | 1.0 | 3.0 | 0.00 | 0.00 | 0.00 | 96 | 1016.8 |
| 20260501194903 | 60 | 55 | 1.0 | 5.0 | 0.00 | 0.00 | 0.00 | 96 | 1016.8 |
| 20260501194403 | 59 | 37 | 0.0 | 3.0 | 0.00 | 0.00 | 0.00 | 96 | 1016.7 |
| 20260501193903 | 59 | 41 | 4.0 | 9.0 | 0.00 | 0.00 | 0.00 | 96 | 1016.7 |
| 20260501193403 | 60 | 58 | 3.0 | 5.0 | 0.00 | 0.00 | 0.00 | 96 | 1016.6 |
| 20260501192903 | 60 | 56 | 3.0 | 7.0 | 0.00 | 0.00 | 0.00 | 96 | 1016.6 |
| 20260501191903 | 60 | 77 | 2.0 | 7.0 | 0.00 | 0.00 | 0.00 | 96 | 1016.6 |
| 20260501191403 | 60 | 55 | 4.0 | 10.0 | 0.00 | 0.00 | 0.00 | 96 | 1016.6 |
| 20260501190403 | 60 | 49 | 3.0 | 7.0 | 0.00 | 0.00 | 0.00 | 96 | 1016.6 |
| 20260501185403 | 60 | 54 | 2.0 | 7.0 | 0.00 | 0.00 | 0.00 | 96 | 1016.8 |
| 20260501184903 | 60 | 18 | 4.0 | 10.0 | 0.00 | 0.00 | 0.00 | 95 | 1016.8 |
| 20260501182904 | 60 | 29 | 6.0 | 13.0 | 0.00 | 0.00 | 0.00 | 95 | 1016.5 |
| 20260501182403 | 60 | 54 | 8.0 | 12.0 | 0.00 | 0.00 | 0.00 | 94 | 1016.5 |
| 20260501181403 | 61 | 34 | 9.0 | 13.0 | 0.00 | 0.00 | 0.00 | 94 | 1016.5 |
| 20260501180903 | 61 | 27 | 7.0 | 12.0 | 0.00 | 0.00 | 0.00 | 93 | 1016.6 |
| 20260501180403 | 61 | 56 | 3.0 | 8.0 | 0.00 | 0.00 | 0.00 | 93 | 1016.6 |
| 20260501175903 | 61 | 60 | 6.0 | 12.0 | 0.00 | 0.00 | 0.00 | 93 | 1016.5 |
| 20260501175403 | 61 | 48 | 7.0 | 10.0 | 0.00 | 0.00 | 0.00 | 93 | 1016.5 |
| 20260501174903 | 61 | 41 | 5.0 | 10.0 | 0.00 | 0.00 | 0.00 | 93 | 1016.5 |
| 20260501174403 | 61 | 35 | 6.0 | 13.0 | 0.00 | 0.00 | 0.00 | 93 | 1016.5 |
| 20260501173903 | 61 | 29 | 7.0 | 13.0 | 0.00 | 0.00 | 0.00 | 93 | 1016.5 |
| 20260501172903 | 61 | 50 | 9.0 | 14.0 | 0.00 | 0.00 | 0.00 | 93 | 1016.4 |
| 20260501172403 | 62 | 53 | 9.0 | 13.0 | 0.00 | 0.00 | 0.00 | 92 | 1016.3 |
| 20260501171903 | 62 | 51 | 7.0 | 12.0 | 0.00 | 0.00 | 0.00 | 92 | 1016.3 |
| 20260501171403 | 62 | 52 | 7.0 | 14.0 | 0.00 | 0.00 | 0.00 | 92 | 1016.4 |
| 20260501170903 | 62 | 41 | 6.0 | 14.0 | 0.00 | 0.00 | 0.00 | 92 | 1016.5 |
| 20260501170404 | 62 | 30 | 8.0 | 14.0 | 0.00 | 0.00 | 0.00 | 91 | 1016.4 |
| 20260501165903 | 63 | 46 | 10.0 | 15.0 | 0.00 | 0.00 | 0.00 | 91 | 1016.4 |
| 20260501165403 | 63 | 46 | 5.0 | 10.0 | 0.00 | 0.00 | 0.00 | 91 | 1016.4 |
| 20260501164903 | 63 | 56 | 6.0 | 12.0 | 0.00 | 0.00 | 0.00 | 91 | 1016.4 |
| 20260501164403 | 63 | 55 | 8.0 | 12.0 | 0.00 | 0.00 | 0.00 | 90 | 1016.4 |
| 20260501163903 | 63 | 33 | 7.0 | 12.0 | 0.00 | 0.00 | 0.00 | 90 | 1016.4 |
| 20260501163403 | 64 | 38 | 6.0 | 12.0 | 0.00 | 0.00 | 0.00 | 90 | 1016.5 |